Zurück zum Katalog

RADUGA 4

AktivMilitärGEO
NORAD 10987·PAYLOAD·🇷🇺 Russia

Gestartet Jul 18, 1978 von Baikonur Cosmodrome

Loading…

TLE

AktuellSource: Space-Track

Epoche: Sep 14, 2026, 14:07 UTC

1 10987U 78073A   26257.58827440 -.00000002  00000-0  00000-0 0  9993
2 10987   4.5648 277.5206 0010691  30.5701 323.7767  1.00194947120492

Verfolge RADUGA 4 in Echtzeit mit AllMySat

Download on the App Store